Tracking 23762 objects as of 21-Oct-2021
HD Live streaming from Space Station
objects crossing your sky now

MIDAS 3

Track MIDAS 3 now!
10-day predictions
MIDAS 3 is classified as:


NORAD ID: 163
Int'l Code: 1961-018A
Perigee: 3,352.9 km
Apogee: 3,549.6 km
Inclination: 91.2 °
Period: 161.5 minutes
Semi major axis: 9822 km
RCS: 10.0428 m2 (large)
Launch date: July 12, 1961
Source: United States (US)
Launch site: AIR FORCE WESTERN TEST RANGE (AFWTR)
aabbcc
Your satellite tracking list
Your tracking list is empty




NASA's NSSDC Master Catalog

Two Line Element Set (TLE):
1 00163U 61018A   21294.42562390  .00000014  00000-0  46444-2 0  9994
2 00163  91.1592 131.9362 0100139 222.4797 136.8293  8.91835614962465
Source of the keplerian elements: AFSPC